Location: Moscow Pond
(43.6842°N, 73.2366°W)
Time: 03:12:28
(UTC+00:00)

Cosmos 2237 Rocket - Pass Details

Date: 08 November 2025
Orbit: 836 x 847 km, 71.0° (Epoch: 04 December)

Event Time Altitude Azimuth Distance (km) Brightness Sun altitude
Rises 10:19:14 0° 208° (SSW) 3,390 5.2 -14.6°
Reaches altitude 10° 10:21:41 10° 210° (SSW) 2,458 4.4 -14.1°
Maximum altitude 10:27:20 76° 296° (WNW) 871 2.1 -13.1°
Drops below altitude 10° 10:33:00 10° 22° (NNE) 2,466 4.8 -12.1°
Sets 10:35:27 0° 24° (NNE) 3,403 5.5 -11.7°
